Погода в Симбухове

Россия / Нижегородская область     54°31′56″N   44°58′02″E
темп.,
°C
ветер,
м/с
пор.,
м/с
влажн.,
%
обл.,
%
осадки,
мм/ч
давл.,
гПа
погр.,
м
6 марта, сб
сб600:00−10з479393 0.0 1012127
03:00−13зсз479356 0.0 101493
06:00−15зсз23970 0.0 101520
09:00−13з22930 0.0 101679
12:00−9юз238612 0.0 1016252
15:00−7юз249028 0.0 1014392
18:00−11зюз239366 0.0 101421
21:00−12зюз239553 0.0 101428
7 марта, вс
вс700:00−14з239753 0.0 101320
03:00−15зюз239756 0.0 101321
06:00−16юз349865 0.0 101252
09:00−13юз599470 0.0 1011262
12:00−8ююз81386100 0.0 1007666
15:00−7ююз101691100 0.1 1003944
18:00−5ююз101793100 1.1 9991135
21:00−4ююз101794100 2.3 995968
8 марта, пн
пн800:00−6з91578100 0.9 994795
03:00−10зюз5148150 0.9 997318
06:00−11юз5139260 0.0 998363
09:00−9юз7149057 0.0 998443
12:00−5зюз8138993 0.4 9971167
15:00−6зюз8128696 0.8 998777
18:00−8з5128472 0.0 1001295
21:00−12зюз499442 0.1 1004176
9 марта, вт
вт900:00−13з479663 0.1 1005140
03:00−15зсз479670 0.1 1007130
06:00−18зсз449870 0.0 101080
09:00−16зсз479567 0.0 1012240
12:00−13зсз359075 0.0 1013430
15:00−11зсз468888 0.1 1013745
18:00−15ссз3494100 0.1 101474
21:00−19сз339990 0.1 101729
10 марта, ср
ср1000:00−21сз3410062 0.0 101740
03:00−24сз3410077 0.1 101953
06:00−25зсз369998 0.0 102096
09:00−23сз479799 0.1 1021255
12:00−20сз4693100 0.0 1022407
15:00−19ссз4689100 0.0 1022595
18:00−22сз3397100 0.0 102327
21:00−25сз239999 0.0 102521